Pecs, Hungary

4:23 PM CEST on June 27, 2017 (GMT +0200)
Pecs

Weather History for LHPP - May, 2013

Change the Weather History Date:

Saturday, May 18, 2013

  Actual Average Record
Temperature  
Mean Temperature 62 °F -  
Max Temperature 72 °F 73 °F - ()
Min Temperature 51 °F 54 °F - ()
Degree Days  
Heating Degree Days 4    
Growing Degree Days 12 (Base 50)    
Moisture  
Dew Point 49 °F    
Average Humidity 60    
Maximum Humidity 94    
Minimum Humidity 38    
Precipitation  
Precipitation 0.00 in 0.10 in - ()
Sea Level Pressure  
Sea Level Pressure 29.95 in    
Wind  
Wind Speed 7 mph ()    
Max Wind Speed 14 mph    
Max Gust Speed 25 mph    
Visibility 6.6 miles    
Events      
T = Trace of Precipitation, MM = Missing Value Source: Averaged Metar Reports

Daily Weather History Graph

Daily Weather History Graph

Search for Another Location

Airport or City:

Trip Planner

Search our weather history database for the weather conditions in past years. The results will help you decide how hot, cold, wet, or windy it might be!

Date:

Astronomy

May. 18, 2013 Rise Set
Actual Time 5:11 AM CEST 8:16 PM CEST
Civil Twilight 4:36 AM CEST 8:51 PM CEST
Nautical Twilight 3:50 AM CEST 9:37 PM CEST
Astronomical Twilight 2:55 AM CEST 10:33 PM CEST
Moon 12:38 PM CEST (5/18) 1:18 AM CEST (5/18)
Length of Visible Light 16h 15m
Length of Day
15h 04m
First Quarter, 52% of the Moon is Illuminated
May 18
First Quarter
May 25
Full
May 31
Last Quarter
Jun 8
New
Jun 16
First Quarter

Hourly Weather History & Observations

Time (CEST) Temp. Dew Point Humidity Pressure Visibility Wind Dir Wind Speed Gust Speed Precip Events Conditions
12:45 AM 53.6 °F 51.8 °F 94% 29.83 in - SSW 6.9 mph - N/A   Clear
1:45 AM 53.6 °F 50.0 °F 88% 29.83 in 6.2 mi SW 5.8 mph - N/A   Partly Cloudy
2:00 AM 53 °F 50 °F 87% 29.83 in 16 mi SW 4.5 mph - -   Partly Cloudy
2:45 AM 55.4 °F 50.0 °F 82% 29.83 in 6.2 mi SW 8.1 mph - N/A   Scattered Clouds
3:45 AM 55.4 °F 50.0 °F 82% 29.83 in 6.2 mi SW 5.8 mph - N/A   Partly Cloudy
4:45 AM 53.6 °F 48.2 °F 82% 29.86 in - WSW 3.5 mph - N/A   Clear
5:45 AM 51.8 °F 48.2 °F 88% 29.89 in - SW 8.1 mph - N/A   Clear
6:15 AM 51.8 °F 48.2 °F 88% 29.89 in - WSW 3.5 mph - N/A   Clear
6:45 AM 55.4 °F 50.0 °F 82% 29.89 in - WSW 1.2 mph - N/A   Clear
7:00 AM - - N/A% - 6.2 mi Variable 3.5 mph - N/A   Clear
7:45 AM 59.0 °F 51.8 °F 77% 29.92 in - SW 6.9 mph - N/A   Clear
8:00 AM 59 °F 53 °F 73% 29.92 in 47 mi SW 6.7 mph - -   Partly Cloudy
8:15 AM 60.8 °F 50.0 °F 68% 29.95 in - SW 8.1 mph - N/A   Clear
8:45 AM 62.6 °F 50.0 °F 63% 29.95 in - SW 9.2 mph - N/A   Clear
9:15 AM 62.6 °F 50.0 °F 63% 29.95 in - WSW 8.1 mph - N/A   Clear
9:45 AM 64.4 °F 50.0 °F 59% 29.98 in 6.2 mi WSW 13.8 mph - N/A   Partly Cloudy
10:00 AM - - N/A% - 6.2 mi WSW 13.8 mph - N/A   Partly Cloudy
10:15 AM 66.2 °F 50.0 °F 56% 29.98 in 6.2 mi WSW 10.4 mph - N/A   Partly Cloudy
10:45 AM 66.2 °F 46.4 °F 49% 29.98 in 6.2 mi WSW 10.4 mph - N/A   Partly Cloudy
11:15 AM 66.2 °F 48.2 °F 52% 29.98 in 6.2 mi WSW 11.5 mph - N/A   Partly Cloudy
11:45 AM 68.0 °F 51.8 °F 56% 29.98 in 6.2 mi West 13.8 mph - N/A   Partly Cloudy
12:15 PM 68.0 °F 48.2 °F 49% 29.98 in 6.2 mi WSW 12.7 mph - N/A   Partly Cloudy
12:45 PM 69.8 °F 50.0 °F 49% 29.98 in 6.2 mi WSW 11.5 mph - N/A   Partly Cloudy
1:00 PM - - N/A% - - WSW 13.8 mph - N/A   Clear
1:15 PM 69.8 °F 50.0 °F 49% 30.01 in 6.2 mi WSW 13.8 mph - N/A   Partly Cloudy
1:45 PM 69.8 °F 48.2 °F 46% 30.01 in 6.2 mi WSW 12.7 mph 25.3 mph N/A   Partly Cloudy
2:00 PM 69 °F 49 °F 38% 29.98 in 47 mi WSW 13.4 mph - -   Partly Cloudy
2:15 PM 69.8 °F 50.0 °F 49% 30.01 in 6.2 mi WSW 13.8 mph 25.3 mph N/A   Partly Cloudy
2:45 PM 71.6 °F 50.0 °F 46% 30.01 in 6.2 mi WSW 12.7 mph - N/A   Partly Cloudy
3:15 PM 71.6 °F 50.0 °F 46% 29.98 in 6.2 mi SW 12.7 mph - N/A   Partly Cloudy
3:45 PM 71.6 °F 50.0 °F 46% 29.98 in 6.2 mi SW 13.8 mph - N/A   Scattered Clouds
4:00 PM - - N/A% - - WSW 13.8 mph - N/A   Clear
4:15 PM 71.6 °F 46.4 °F 41% 29.98 in 6.2 mi WSW 13.8 mph - N/A   Scattered Clouds
4:45 PM 71.6 °F 46.4 °F 41% 29.98 in 6.2 mi WSW 11.5 mph - N/A   Scattered Clouds
5:15 PM 71.6 °F 48.2 °F 43% 29.98 in 6.2 mi West 11.5 mph - N/A   Partly Cloudy
5:45 PM 71.6 °F 48.2 °F 43% 29.98 in 6.2 mi West 10.4 mph - N/A   Partly Cloudy
6:15 PM 71.6 °F 50.0 °F 46% 29.98 in - West 8.1 mph - N/A   Clear
6:45 PM 69.8 °F 48.2 °F 46% 29.98 in - West 8.1 mph - N/A   Clear
7:15 PM 69.8 °F 48.2 °F 46% 29.98 in - West 4.6 mph - N/A   Clear
7:45 PM 68.0 °F 50.0 °F 52% 29.98 in - WSW 4.6 mph - N/A   Clear
8:00 PM 67 °F 50 °F 44% 29.96 in 47 mi WSW 4.5 mph - -   Partly Cloudy
8:15 PM 64.4 °F 50.0 °F 59% 29.98 in - WSW 2.3 mph - N/A   Clear
8:45 PM 64.4 °F 48.2 °F 56% 29.98 in - WSW 3.5 mph - N/A   Clear
9:15 PM 64.4 °F 50.0 °F 59% 29.98 in - SW 3.5 mph - N/A   Clear
9:45 PM 62.6 °F 48.2 °F 59% 29.98 in - SW 4.6 mph - N/A   Clear
10:45 PM 57.2 °F 50.0 °F 77% 29.98 in - ESE 1.2 mph - N/A   Clear
11:45 PM 55.4 °F 50.0 °F 82% 29.98 in - SE 2.3 mph - N/A   Clear